This is the latest recevied weather packets stored in our database for station/object OK1TBF-6. If no packets are shown the sender has not sent any weather packets the latest 10 day(s).
| Time | Temp. | Humidity | Pressure | Rain* | Wind** | Luminosity | Snow |
|---|---|---|---|---|---|---|---|
| 1777590637 | 8.33° C | 53% | 1019.3 hPa | 0 mm | - | - | - |
| 1777584937 | 8.89° C | 51% | 1019.2 hPa | 0 mm | - | - | - |
| 1777583437 | 8.33° C | 52% | 1019 hPa | 0 mm | - | - | - |
| 1777583136 | 8.33° C | 52% | 1019.1 hPa | 0 mm | - | - | - |
| 1777582536 | 8.89° C | 52% | 1019.1 hPa | 0 mm | - | - | - |
| 1777577436 | 9.44° C | 48% | 1019.3 hPa | 0 mm | - | - | - |
| 1777575935 | 10° C | 47% | 1019.1 hPa | 0 mm | - | - | - |
| 1777573835 | 10° C | 47% | 1018.7 hPa | 0 mm | - | - | - |
| 1777572636 | 10.56° C | 45% | 1018.6 hPa | 0 mm | - | - | - |
| 1777569935 | 11.67° C | 41% | 1018.3 hPa | 0 mm | - | - | - |
| 1777568734 | 11.67° C | 40% | 1018.5 hPa | 0 mm | - | - | - |
| 1777568134 | 12.22° C | 40% | 1018.5 hPa | 0 mm | - | - | - |
| 1777567835 | 12.22° C | 40% | 1018.2 hPa | 0 mm | - | - | - |
| 1777566933 | 12.22° C | 40% | 1018.5 hPa | 0 mm | - | - | - |
| 1777563928 | 12.78° C | 37% | 1018.5 hPa | 0 mm | - | - | - |
| 1777563628 | 12.78° C | 37% | 1018.5 hPa | 0 mm | - | - | - |
| 1777562127 | 12.78° C | 38% | 1018.4 hPa | 0 mm | - | - | - |
| 1777561228 | 12.22° C | 37% | 1018.6 hPa | 0 mm | - | - | - |
| 1777560026 | 12.78° C | 36% | 1018.8 hPa | 0 mm | - | - | - |
| 1777557027 | 12.78° C | 31% | 1018.8 hPa | 0 mm | - | - | - |
| 1777556786 | 12.78° C | 31% | 1019.1 hPa | 0 mm | - | - | - |
| 1777556488 | 12.22° C | 31% | 1019 hPa | 0 mm | - | - | - |
| 1777556187 | 12.78° C | 33% | 1019 hPa | 0 mm | - | - | - |
| 1777554386 | 12.22° C | 29% | 1019.2 hPa | 0 mm | - | - | - |
| 1777552886 | 12.22° C | 30% | 1019.5 hPa | 0 mm | - | - | - |
* Rain latest hour (hover to see other rain measurements)
** Current wind speed in m/s (hover to see current wind gust speed)